Weather Service Report


042 
ASUS43 KMPX 011910
RWRMN 
WEATHER ROUNDUP FOR MINNESOTA
NATIONAL WEATHER SERVICE TWIN CITIES/CHANHASSEN MN
200 PM CDT FRI JUL 01 2016


NOTE: "FAIR" INDICATES FEW OR NO CLOUDS BELOW 12,000 FEET WITH NO
SIGNIFICANT WEATHER AND/OR OBSTRUCTIONS TO VISIBILITY. N/A MEANS
CURRENT SKY AND/OR WEATHER CONDITIONS ARE NOT AVAILABLE.

MNZ060>063-068>070-012000-
   Twin Cities Metro   
  
CITY           SKY/WX    TMP DP  RH WIND       PRES   REMARKS
TWIN CITIES    MOSUNNY   70  46  42 VRB3      30.18F                  
ST PAUL        SUNNY     69  49  48 S6        30.18F                  
CRYSTAL        SUNNY     69  42  37 VRB7      30.16F                  
BLAINE         MOSUNNY   72  48  43 CALM      30.18S                  
LAKEVILLE      SUNNY     66  50  55 CALM      30.18S                  
EDEN PRAIRIE   SUNNY     73  45  36 VRB5      30.17F                  
LAKEVILLE      SUNNY     66  50  55 CALM      30.18S                  
SOUTH ST PAUL  SUNNY     69  47  46 NE3       30.17F                  
LAKE ELMO      FAIR      70  48  46 NE5       30.19S                  
$$
MNZ001>005-007-008-013>017-022>024-027-028-012000-
   Northwest Minnesota   
  
CITY           SKY/WX    TMP DP  RH WIND       PRES   REMARKS
BEMIDJI        SUNNY     69  41  35 W3        30.18F                  
HALLOCK        MOSUNNY   70  46  43 W6        30.16F                  
ROSEAU         MOSUNNY   70  52  52 NW3       30.18F                  
WARROAD        PTSUNNY   68  50  52 SW6       30.18F                  
THIEF RVR FALL MOSUNNY   67  48  50 W7        30.19F                  
CROOKSTON      SUNNY     68  46  45 SW7       30.18F                  
FOSSTON        SUNNY     70  52  52 NE3       30.19F                  
DETROIT LAKES  SUNNY     68  41  37 SE9       30.19F                  
MOORHEAD       CLOUDY    70  41  35 S8        30.18F                  
PARK RAPIDS    SUNNY     70  43  37 VRB5      30.18F                  
MAHNOMEN       FAIR      68  45  42 E5        30.18F                  
$$
MNZ006-009>011-018-025>026-012000-
   North Central Minnesota   
  
CITY           SKY/WX    TMP DP  RH WIND       PRES   REMARKS
BAUDETTE       MOSUNNY   71  47  42 N8        30.17F                  
FLAG ISLAND    CLOUDY    66  52  59 S10       30.15S                  
INTL FALLS     SUNNY     70  47  43 W9        30.15F                  
WASKISH        CLOUDY    70  46  43 SW8       30.18S                  
BIG FORK       MOSUNNY   70  46  43 NW3       30.17F                  
LONGVILLE      PTSUNNY   68  48  49 SW6       30.19S                  
GRAND RAPIDS   SUNNY     67  44  43 VRB3      30.20F                  
CRANE LAKE     MOSUNNY   66  45  45 NW8       30.17S                  
ORR            SUNNY     70  43  37 NW7       30.15S                  
COOK           MOSUNNY   70  45  40 W9        30.17S                  
WALKER         FAIR      67  45  45 E7        30.18F                  
$$
MNZ012-019>021-037-012000-
   Northeast Minnesota   
  
CITY           SKY/WX    TMP DP  RH WIND       PRES   REMARKS
DULUTH         MOSUNNY   70  46  42 VRB3      30.16F                  
ELY            MOSUNNY   68  43  40 NW8       30.15S                  
HIBBING        SUNNY     68  44  42 VRB3      30.17F                  
EVELETH        SUNNY     68  40  35 N7        30.18S                  
DULUTH HARBOR  SUNNY     70  46  43 CALM      30.16F                  
TWO HARBORS    MOSUNNY   72  54  53 S9        30.13F                  
SILVER BAY     MOSUNNY   72  50  46 S10       30.12F                  
GRAND MARAIS     N/A     56  44  64 W13G21    30.11S                  
G MARAIS ARPRT MOSUNNY   66  43  42 W8        30.14S                  
$$
MNZ029>031-032-039>041-046>048-054>057-064-012000-
   West Central Minnesota   
  
CITY           SKY/WX    TMP DP  RH WIND       PRES   REMARKS
FERGUS FALLS   CLOUDY    68  46  45 SE7       30.14F                  
WHEATON        SUNNY     72  52  49 S5        30.18F                  
MORRIS         SUNNY     70  48  46 SE6       30.17F                  
ALEXANDRIA     CLOUDY    68  44  42 SE6       30.19F                  
ELBOW LAKE     FAIR      68  49  49 SE7       30.18F                  
WADENA         SUNNY     66  45  45 S7        30.18F                  
GLENWOOD       SUNNY     70  46  43 E3        30.19F                  
APPLETON       SUNNY     72  45  37 SE8       30.16F                  
BENSON         SUNNY     70  46  43 SW3       30.17F                  
ORTONVILLE     SUNNY     70  46  43 CALM      30.16F                  
MADISON        SUNNY     70  46  43 CALM      30.17S                  
WILLMAR        FAIR      70  50  49 CALM      30.19F                  
$$
MNZ033>034-036-042>043-049>051-058-059-012000-
   Central Minnesota     
  
CITY           SKY/WX    TMP DP  RH WIND       PRES   REMARKS
ST CLOUD       SUNNY     69  45  41 VRB7      30.18F                  
SAUK CENTRE    FAIR      67  46  46 S6        30.19F                  
PAYNESVILLE    MOSUNNY   67  46  47 CALM      30.19F                  
AITKIN         MOSUNNY   72  41  33 S5        30.17F                  
PINE RIVER     SUNNY     68  48  49 SW5       30.21F                  
BRAINERD       SUNNY     68  45  43 S6        30.19F                  
STAPLES        SUNNY     70  39  32 SE5       30.18F                  
LONG PRAIRIE   FAIR      64  43  45 CALM      30.19F                  
LITTLE FALLS   SUNNY     70  39  32 E5        30.19F                  
LITCHFIELD     MOSUNNY   68  50  52 CALM      30.19S                  
BUFFALO        SUNNY     68  47  47 E5        30.19F                  
HUTCHINSON     SUNNY     69  52  54 N6        30.19F                  
$$
MNZ037-044-045-052-053-012000-
   East Central Minnesota   
  
CITY           SKY/WX    TMP DP  RH WIND       PRES   REMARKS
PRINCETON      SUNNY     72  46  40 E8        30.18F                  
MORA           SUNNY     68  45  42 S5        30.20F                  
CAMBRIDGE        N/A     72  48  43 S7        30.16F                  
RUSH CITY      SUNNY     69  47  46 CALM      30.19S                  
MOOSE LAKE     MOSUNNY   68  45  42 CALM      30.17S                  
HINCKLEY       FAIR      70  45  40 CALM      30.18F                  
CLOQUET        PTSUNNY   68  43  40 W8        30.17F                  
MCGREGOR       SUNNY     68  45  42 E5        30.19S                  
$$
MNZ071>073-080-081-089-090-097-098-012000-
   Southwest Minnesota   
  
CITY           SKY/WX    TMP DP  RH WIND       PRES   REMARKS
MONTEVIDEO     SUNNY     72  52  49 CALM      30.19S                  
GRANITE FALLS  SUNNY     71  52  52 SE3       30.19F                  
CANBY          SUNNY     74  52  44 E3        30.17F                  
MARSHALL       SUNNY     70  51  51 VRB5      30.17F                  
REDWOOD FALLS  SUNNY     69  50  50 CALM      30.17F                  
OLIVIA         SUNNY     70  52  52 S6        30.18S                  
PIPESTONE      SUNNY     72  46  40 CALM      30.16F                  
WINDOM         MOSUNNY   70  50  49 E1        30.18F                  
WORTHINGTON    MOSUNNY   70  50  49 VRB3      30.18F                  
JACKSON        SUNNY     70  48  46 E3        30.19S                  
TRACY          MOSUNNY   71  55  55 S6        30.18S                  
SLAYTON        SUNNY     71  48  44 SE5       30.19F                  
$$
MNZ065>067-074>077-082>085-091>093-012000-
   South Central Minnesota  
  
CITY           SKY/WX    TMP DP  RH WIND       PRES   REMARKS
MANKATO        MOSUNNY   70  52  52 N5        30.18F                  
NEW ULM        SUNNY     68  48  49 CALM      30.18S                  
ST JAMES       SUNNY     64  46  52 W3        30.19F                  
FAIRMONT       PTSUNNY   70  52  52 CALM      30.18F                  
GLENCOE        SUNNY     69  51  51 CALM      30.17F                  
FARIBAULT      SUNNY     68  52  56 E6        30.18F                  
OWATONNA       MOSUNNY   66  48  52 CALM      30.18S                  
WASECA         MOSUNNY   70  52  52 NW3       30.20R                  
ALBERT LEA     MOSUNNY   70  52  52 CALM      30.18F                  
$$
MNZ078>079-086>088-094>096-012000-
   Southeast Minnesota   
  
CITY           SKY/WX    TMP DP  RH WIND       PRES   REMARKS
ROCHESTER      SUNNY     68  52  56 CALM      30.18F                  
RED WING       MOSUNNY   72  46  40 SE6       30.16S                  
STANTON        SUNNY     68  50  51 NE3       30.17S                  
DODGE CENTER   SUNNY     72  50  46 CALM      30.18F                  
WINONA         SUNNY     70  48  46 CALM      30.17S                  
AUSTIN         SUNNY     68  50  52 CALM      30.18S                  
PRESTON        MOSUNNY   65  51  59 N5        30.19S                  
$$
ABBREVIATIONS USED IN REMARKS
   TC - TEMPERATURES IN CELSIUS
  WCI - WIND CHILL INDEX
   HX - HEAT INDEX
  VSB - VISIBILITY 
$$
  

Return to Home page


Western Regional Climate Center, wrcc@dri.edu